Weather Roundup
Issued by NWS

Home | Current Version | Previous Version | Graphics & Text | Print | Product List | Glossary Off
Versions: 1 2 3 4 5 6 7 8 9 10 11 12 13 14 15 16 17 18 19 20 21 22 23 24 25 26 27 28 29 30 31 32 33 34 35 36 37 38 39 40 41 42 43 44 45 46 47 48 49 50

000
NZUS93 KARX 210410
HRRWXR

CURRENT HOURLY OBSERVATIONS ACROSS
MUCH OF THE UPPER MISSISSIPPI VALLEY
NATIONAL WEATHER SERVICE LA CROSSE WI
1100 PM CDT MON OCT 20 2014


...SOUTHEAST MINNESOTA...


CITY           SKY/WX    TMP DP  RH WIND       PRES   REMARKS
ROCHESTER      CLEAR     44  38  79 NE5       30.08R
ROCHESTER/MAYO FAIR      49  37  62 CALM      30.07S
WINONA         CLEAR     45  41  87 CALM      30.07S
AUSTIN         CLEAR     45  39  81 CALM      30.06R
ALBERT LEA     CLEAR     46  39  76 CALM      30.06R
DODGE CENTER   CLEAR     43  39  87 E6        30.07R
PRESTON        CLEAR     45  39  78 CALM      30.07R
OWATONNA       CLEAR     46  37  71 E8        30.07R
FARIBAULT      CLEAR     37  36  93 N3        30.07R
$$

...ELSEWHERE IN MINNESOTA...


CITY           SKY/WX    TMP DP  RH WIND       PRES   REMARKS
MINNEAPOLIS    CLEAR     48  39  71 NE5       30.09R
INTNL FALLS    CLOUDY    43  36  76 E8        30.13R
DULUTH         CLOUDY    46  35  65 N6        30.10S
RED WING       CLEAR     43  37  81 CALM      30.07S
REDWOOD FALLS  CLEAR     52  39  61 E3        30.06R
MANKATO        FAIR      48  36  61 E8        30.06R
WORTHINGTON    CLEAR     39  34  81 NW3       30.08S
FAIRMONT       CLEAR     45  32  61 N3        30.06R
$$

...SOUTHWEST WISCONSIN...


CITY           SKY/WX    TMP DP  RH WIND       PRES   REMARKS
LA CROSSE      CLEAR     45  40  82 CALM      30.06R
PRAIRIE DU CHI CLEAR     47  39  74 CALM      30.05R
BOSCOBEL       CLEAR     41  39  93 CALM      30.06R FOG
LONE ROCK      PTCLDY    53  38  56 VRB3      30.04S
PLATTEVILLE    CLEAR     45  39  79 CALM      30.05R
FORT MC COY    PTCLDY    43  38  80 CALM      30.07R
CAMP DOUGLAS   MOCLDY    45  43  93 CALM      30.05S
VIROQUA        FAIR      45  38  77 CALM      30.05S
WIS DELLS      CLOUDY    50  38  64 N3        30.04S
$$

...ELSEWHERE IN WISCONSIN...


CITY           SKY/WX    TMP DP  RH WIND       PRES   REMARKS
MILWAUKEE      MOCLDY    51  42  71 N7        30.01S
MADISON        CLOUDY    51  38  60 N7        30.03S
GREEN BAY      CLOUDY    47  40  76 N9        30.04R
EAU CLAIRE     CLEAR     45  38  76 N5        30.07R
BLACK RVR FLS  CLOUDY    39  39  99 CALM      30.06R
MEDFORD        CLOUDY    45  40  82 N5        30.06S
WAUSAU         LGT RAIN  46  40  79 N3        30.05R
WIS RAPIDS     CLOUDY    49  40  71 N5        30.07R
MARSHFIELD     CLOUDY    49  40  71 N6        30.06R
RICE LAKE      CLOUDY    44  39  82 N5        30.10R
$$

...NORTHEAST IOWA...


CITY           SKY/WX    TMP DP  RH WIND       PRES   REMARKS
DECORAH        PTCLDY    48  41  76 NE3       30.05R
MASON CITY     CLEAR     42  38  85 N5        30.06S
CHARLES CITY   CLEAR     46  39  76 NE8       30.05S
OELWEIN        CLEAR     45  39  81 NE6       30.05R
$$

...ELSEWHERE IN IOWA...


CITY           SKY/WX    TMP DP  RH WIND       PRES   REMARKS
DES MOINES     CLEAR     55  41  59 CALM      30.05R
IOWA CITY      CLEAR     45  42  89 CALM      30.04R
FORT DODGE     CLEAR     39  36  87 CALM      30.06R
$$

...NORTHERN ILLINOIS...


CITY           SKY/WX    TMP DP  RH WIND       PRES   REMARKS
CHICAGO-OHARE  MOCLDY    52  41  66 N9        30.00R
CHICAGO-MIDWAY MOCLDY    55  43  63 N12       29.99S
MOLINE         CLEAR     46  41  82 SE3       30.03R
ROCKFORD       MOCLDY    49  40  71 N6        30.04S
PEORIA         CLEAR     53  44  71 NE8       30.02R
$$

NOTE: "FAIR" INDICATES FEW OR NO CLOUDS BELOW 12,000 FEET WITH NO
SIGNIFICANT WEATHER AND/OR OBSTRUCTIONS TO VISIBILITY. WIND
SPEEDS ARE IN MILES-PER-HOUR.



USA.gov is the U.S. government's official web portal to all federal, state and local government web resources and services.